Private Wetterstation Wechselburg
Wetterdaten: Mittwoch, 31.10.2012
Datum Zeit Temp. +2m Bodentemp. Temp.+5cm Temp. Wind Windchill X Diff Temp. Feuchte +2m Feuchte +5cm Sonnenschein Luftdruck Regen Wind Richtung Richtung Sonnenschein UV Taupunkt Windchill Windben
31.10.2012 00:00 2,5 C 11,2 C 3,1 C 2,7 C 2,7 C 0,2 C 87 % 95 % 0 % 1008,2 hPa 0,0 l/m 0,2 km/h (0 Bft) N-NO 22 0 min 0,0 UV-I 0,6 C 2,7 C 0,0 km/h (0 Bft)
31.10.2012 00:05 2,4 C 11,2 C 3,0 C 2,6 C 2,6 C 0,2 C 87 % 95 % 0 % 1008,2 hPa 0,0 l/m 0,2 km/h (0 Bft) N-NO 22 0 min 0,0 UV-I 0,5 C 2,6 C 0,0 km/h (0 Bft)
31.10.2012 00:10 2,4 C 11,2 C 3,0 C 2,6 C 2,6 C 0,2 C 87 % 95 % 0 % 1008,2 hPa 0,0 l/m 0,0 km/h (0 Bft) O-SO 112 0 min 0,0 UV-I 0,5 C 2,6 C 0,0 km/h (0 Bft)
31.10.2012 00:15 2,4 C 11,2 C 3,1 C 2,8 C 2,8 C 0,4 C 87 % 95 % 0 % 1008,2 hPa 0,0 l/m 0,0 km/h (0 Bft) S-SO 157 0 min 0,0 UV-I 0,5 C 2,8 C 0,0 km/h (0 Bft)
31.10.2012 00:20 2,4 C 11,2 C 3,2 C 3,0 C 3,0 C 0,6 C 88 % 95 % 0 % 1007,9 hPa 0,0 l/m 0,0 km/h (0 Bft) O-NO 67 0 min 0,0 UV-I 0,6 C 3,0 C 0,0 km/h (0 Bft)
31.10.2012 00:25 2,4 C 11,2 C 3,2 C 3,2 C 3,2 C 0,8 C 88 % 95 % 0 % 1007,9 hPa 0,0 l/m 0,0 km/h (0 Bft) O-SO 112 0 min 0,0 UV-I 0,6 C 3,2 C 0,0 km/h (0 Bft)
31.10.2012 00:30 2,4 C 11,2 C 3,3 C 3,3 C 3,3 C 0,9 C 88 % 95 % 0 % 1007,9 hPa 0,0 l/m 0,0 km/h (0 Bft) NO 45 0 min 0,0 UV-I 0,6 C 3,3 C 0,0 km/h (0 Bft)
31.10.2012 00:35 2,5 C 11,2 C 3,5 C 3,4 C 3,4 C 0,9 C 88 % 95 % 0 % 1007,9 hPa 0,0 l/m 0,2 km/h (0 Bft) N-NO 22 0 min 0,0 UV-I 0,7 C 3,4 C 0,0 km/h (0 Bft)
31.10.2012 00:41 2,7 C 11,2 C 3,5 C 3,7 C 3,7 C 1,0 C 88 % 95 % 0 % 1007,8 hPa 0,0 l/m 0,3 km/h (0 Bft) N 0 0 min 0,0 UV-I 0,9 C 3,7 C 2,7 km/h (1 Bft)
31.10.2012 00:55 2,7 C 11,2 C 3,6 C 3,7 C 3,7 C 1,0 C 89 % 95 % 0 % 1007,8 hPa 0,0 l/m 0,5 km/h (0 Bft) S-SO 157 0 min 0,0 UV-I 1,1 C 3,7 C 4,3 km/h (1 Bft)
31.10.2012 01:00 2,8 C 11,2 C 3,6 C 3,7 C 3,7 C 0,9 C 89 % 95 % 0 % 1007,9 hPa 0,0 l/m 0,8 km/h (0 Bft) S 180 0 min 0,0 UV-I 1,2 C 3,7 C 5,1 km/h (1 Bft)
31.10.2012 01:05 2,8 C 11,2 C 3,7 C 3,7 C 3,7 C 0,9 C 89 % 95 % 0 % 1007,9 hPa 0,0 l/m 0,8 km/h (0 Bft) N-NO 22 0 min 0,0 UV-I 1,2 C 3,7 C 0,0 km/h (0 Bft)
31.10.2012 01:10 2,8 C 11,2 C 3,6 C 3,7 C 3,7 C 0,9 C 89 % 95 % 0 % 1007,9 hPa 0,0 l/m 0,6 km/h (0 Bft) S 180 0 min 0,0 UV-I 1,2 C 3,7 C 2,1 km/h (1 Bft)
31.10.2012 01:15 2,8 C 11,2 C 3,7 C 3,8 C 3,8 C 1,0 C 89 % 95 % 0 % 1007,9 hPa 0,0 l/m 0,5 km/h (0 Bft) SW 225 0 min 0,0 UV-I 1,2 C 3,8 C 0,0 km/h (0 Bft)
31.10.2012 01:20 2,9 C 11,2 C 3,7 C 3,9 C 3,9 C 1,0 C 89 % 95 % 0 % 1008,4 hPa 0,0 l/m 0,6 km/h (0 Bft) S 180 0 min 0,0 UV-I 1,3 C 3,9 C 2,3 km/h (1 Bft)
31.10.2012 01:25 3,0 C 11,2 C 3,9 C 4,0 C 4,0 C 1,0 C 89 % 96 % 0 % 1008,4 hPa 0,0 l/m 0,6 km/h (0 Bft) N-NO 22 0 min 0,0 UV-I 1,4 C 4,0 C 0,0 km/h (0 Bft)
31.10.2012 01:30 3,1 C 11,2 C 3,8 C 4,0 C 4,0 C 0,9 C 89 % 96 % 0 % 1008,4 hPa 0,0 l/m 0,8 km/h (0 Bft) SW 225 0 min 0,0 UV-I 1,5 C 4,0 C 4,7 km/h (1 Bft)
31.10.2012 01:35 3,0 C 11,2 C 3,9 C 4,1 C 4,1 C 1,1 C 89 % 96 % 0 % 1008,4 hPa 0,0 l/m 1,0 km/h (0 Bft) NW 315 0 min 0,0 UV-I 1,4 C 4,1 C 0,0 km/h (0 Bft)
31.10.2012 01:40 3,1 C 11,2 C 3,9 C 4,2 C 4,2 C 1,1 C 89 % 96 % 0 % 1007,8 hPa 0,0 l/m 1,0 km/h (0 Bft) SO 135 0 min 0,0 UV-I 1,5 C 4,2 C 2,7 km/h (1 Bft)
31.10.2012 01:45 3,1 C 11,2 C 4,1 C 4,3 C 4,3 C 1,2 C 89 % 96 % 0 % 1007,8 hPa 0,0 l/m 1,0 km/h (0 Bft) S-SO 157 0 min 0,0 UV-I 1,5 C 4,3 C 5,5 km/h (1 Bft)
31.10.2012 01:50 3,3 C 11,1 C 4,1 C 4,3 C 4,3 C 1,0 C 89 % 96 % 0 % 1007,8 hPa 0,0 l/m 2,1 km/h (1 Bft) SW 225 0 min 0,0 UV-I 1,7 C 4,3 C 4,2 km/h (1 Bft)
31.10.2012 01:55 3,3 C 11,2 C 4,0 C 4,4 C 4,4 C 1,1 C 89 % 96 % 0 % 1007,8 hPa 0,0 l/m 2,6 km/h (1 Bft) SW 225 0 min 0,0 UV-I 1,7 C 4,4 C 6,4 km/h (2 Bft)
31.10.2012 02:00 3,4 C 11,1 C 4,1 C 4,4 C 4,4 C 1,0 C 88 % 96 % 0 % 1007,8 hPa 0,0 l/m 2,4 km/h (1 Bft) SW 225 0 min 0,0 UV-I 1,6 C 4,4 C 1,9 km/h (1 Bft)
31.10.2012 02:05 3,5 C 11,2 C 4,0 C 4,3 C 4,3 C 0,8 C 88 % 96 % 0 % 1007,8 hPa 0,0 l/m 1,6 km/h (1 Bft) O 90 0 min 0,0 UV-I 1,7 C 4,3 C 2,3 km/h (1 Bft)
31.10.2012 02:10 3,4 C 11,2 C 4,0 C 4,1 C 4,1 C 0,7 C 88 % 96 % 0 % 1007,8 hPa 0,0 l/m 1,0 km/h (0 Bft) W-SW 247 0 min 0,0 UV-I 1,6 C 4,1 C 0,0 km/h (0 Bft)
31.10.2012 02:15 3,2 C 11,2 C 3,7 C 3,6 C 3,6 C 0,4 C 88 % 95 % 0 % 1007,8 hPa 0,0 l/m 0,3 km/h (0 Bft) W-SW 247 0 min 0,0 UV-I 1,4 C 3,6 C 0,0 km/h (0 Bft)
31.10.2012 02:20 3,3 C 11,2 C 3,6 C 3,3 C 3,2 C 0,0 C 88 % 95 % 0 % 1007,7 hPa 0,0 l/m 0,3 km/h (0 Bft) S-SW 202 0 min 0,0 UV-I 1,5 C 3,2 C 0,0 km/h (0 Bft)
31.10.2012 02:25 3,1 C 11,2 C 3,4 C 3,0 C 2,9 C 0,0 C 87 % 95 % 0 % 1007,7 hPa 0,0 l/m 0,3 km/h (0 Bft) SW 225 0 min 0,0 UV-I 1,2 C 2,9 C 1,6 km/h (1 Bft)
31.10.2012 02:30 3,1 C 11,2 C 3,2 C 3,0 C 2,7 C 0,0 C 87 % 95 % 0 % 1007,7 hPa 0,0 l/m 0,3 km/h (0 Bft) S-SO 157 0 min 0,0 UV-I 1,2 C 2,7 C 0,0 km/h (0 Bft)
31.10.2012 02:35 2,8 C 11,2 C 3,1 C 2,7 C 2,5 C 0,0 C 87 % 95 % 0 % 1007,7 hPa 0,0 l/m 0,3 km/h (0 Bft) SW 225 0 min 0,0 UV-I 0,9 C 2,5 C 0,0 km/h (0 Bft)
31.10.2012 02:40 2,9 C 11,2 C 3,1 C 2,8 C 2,5 C 0,0 C 88 % 95 % 0 % 1007,7 hPa 0,0 l/m 0,5 km/h (0 Bft) SW 225 0 min 0,0 UV-I 1,1 C 2,5 C 1,8 km/h (1 Bft)
31.10.2012 02:45 2,7 C 11,2 C 2,9 C 2,6 C 2,4 C 0,0 C 88 % 95 % 0 % 1007,7 hPa 0,0 l/m 0,3 km/h (0 Bft) S 180 0 min 0,0 UV-I 0,9 C 2,4 C 0,0 km/h (0 Bft)
31.10.2012 02:50 2,7 C 11,2 C 2,8 C 2,5 C 2,2 C 0,0 C 87 % 95 % 0 % 1007,7 hPa 0,0 l/m 0,2 km/h (0 Bft) SW 225 0 min 0,0 UV-I 0,8 C 2,2 C 0,0 km/h (0 Bft)
31.10.2012 02:55 2,5 C 11,2 C 2,7 C 2,3 C 2,0 C 0,0 C 88 % 95 % 0 % 1007,7 hPa 0,0 l/m 0,2 km/h (0 Bft) W 270 0 min 0,0 UV-I 0,7 C 2,0 C 0,0 km/h (0 Bft)
31.10.2012 03:00 2,4 C 11,2 C 2,7 C 2,3 C 2,0 C 0,0 C 88 % 95 % 0 % 1007,3 hPa 0,0 l/m 0,3 km/h (0 Bft) S 180 0 min 0,0 UV-I 0,6 C 2,0 C 2,4 km/h (1 Bft)
31.10.2012 03:05 2,4 C 11,2 C 2,7 C 2,3 C 2,0 C 0,0 C 88 % 96 % 0 % 1007,3 hPa 0,0 l/m 0,6 km/h (0 Bft) SO 135 0 min 0,0 UV-I 0,6 C 2,0 C 2,6 km/h (1 Bft)
31.10.2012 03:10 2,4 C 11,3 C 2,5 C 2,3 C 2,1 C 0,0 C 88 % 95 % 0 % 1007,3 hPa 0,0 l/m 0,6 km/h (0 Bft) S 180 0 min 0,0 UV-I 0,6 C 2,1 C 0,0 km/h (0 Bft)
31.10.2012 03:15 2,2 C 11,3 C 2,4 C 2,1 C 1,9 C 0,0 C 88 % 95 % 0 % 1007,3 hPa 0,0 l/m 0,2 km/h (0 Bft) SW 225 0 min 0,0 UV-I 0,4 C 1,9 C 0,0 km/h (0 Bft)
31.10.2012 03:20 2,3 C 11,3 C 2,3 C 2,2 C 1,9 C 0,0 C 88 % 96 % 0 % 1007,1 hPa 0,0 l/m 0,0 km/h (0 Bft) O 90 0 min 0,0 UV-I 0,5 C 1,9 C 0,0 km/h (0 Bft)
31.10.2012 03:25 2,1 C 11,4 C 2,2 C 2,0 C 1,7 C 0,0 C 88 % 95 % 0 % 1007,1 hPa 0,0 l/m 0,0 km/h (0 Bft) O-SO 112 0 min 0,0 UV-I 0,3 C 1,7 C 0,0 km/h (0 Bft)
31.10.2012 03:30 2,0 C 11,4 C 2,1 C 1,9 C 1,6 C 0,0 C 88 % 96 % 0 % 1007,1 hPa 0,0 l/m 0,0 km/h (0 Bft) O-SO 112 0 min 0,0 UV-I 0,2 C 1,6 C 0,0 km/h (0 Bft)
31.10.2012 03:35 1,9 C 11,4 C 2,0 C 1,7 C 1,4 C 0,0 C 88 % 96 % 0 % 1007,1 hPa 0,0 l/m 0,0 km/h (0 Bft) NW 315 0 min 0,0 UV-I 0,1 C 1,4 C 0,0 km/h (0 Bft)
31.10.2012 03:40 1,8 C 11,4 C 2,1 C 1,6 C 1,3 C 0,0 C 88 % 96 % 0 % 1007,3 hPa 0,0 l/m 0,0 km/h (0 Bft) O-NO 67 0 min 0,0 UV-I 0,0 C 1,3 C 0,0 km/h (0 Bft)
31.10.2012 03:45 1,7 C 11,4 C 1,9 C 1,5 C 1,2 C 0,0 C 88 % 96 % 0 % 1007,3 hPa 0,0 l/m 0,0 km/h (0 Bft) W 270 0 min 0,0 UV-I -0,1 C 1,2 C 0,0 km/h (0 Bft)
31.10.2012 03:50 1,6 C 11,4 C 1,9 C 1,4 C 1,1 C 0,0 C 88 % 96 % 0 % 1007,3 hPa 0,0 l/m 0,0 km/h (0 Bft) W 270 0 min 0,0 UV-I -0,2 C 1,1 C 0,0 km/h (0 Bft)
31.10.2012 03:55 1,6 C 11,5 C 1,9 C 1,4 C 0,9 C 0,0 C 88 % 96 % 0 % 1007,3 hPa 0,0 l/m 0,0 km/h (0 Bft) N 360 0 min 0,0 UV-I -0,2 C 0,9 C 0,0 km/h (0 Bft)
31.10.2012 04:00 1,5 C 11,5 C 1,7 C 1,3 C 0,8 C 0,0 C 88 % 96 % 0 % 1007,8 hPa 0,0 l/m 0,0 km/h (0 Bft) N-NO 22 0 min 0,0 UV-I -0,3 C 0,8 C 0,0 km/h (0 Bft)
31.10.2012 04:05 1,3 C 11,5 C 1,6 C 1,1 C 0,8 C 0,0 C 88 % 96 % 0 % 1007,8 hPa 0,0 l/m 0,0 km/h (0 Bft) N-NO 22 0 min 0,0 UV-I -0,5 C 0,8 C 0,0 km/h (0 Bft)
31.10.2012 04:10 1,3 C 11,5 C 1,5 C 1,1 C 0,7 C 0,0 C 88 % 95 % 0 % 1007,8 hPa 0,0 l/m 0,0 km/h (0 Bft) N-NO 22 0 min 0,0 UV-I -0,5 C 0,7 C 0,0 km/h (0 Bft)
31.10.2012 04:15 1,3 C 11,5 C 1,5 C 1,1 C 0,7 C 0,0 C 88 % 95 % 0 % 1007,8 hPa 0,0 l/m 0,0 km/h (0 Bft) N-NO 22 0 min 0,0 UV-I -0,5 C 0,7 C 0,0 km/h (0 Bft)
31.10.2012 04:20 1,2 C 11,5 C 1,2 C 1,0 C 0,7 C 0,0 C 88 % 95 % 0 % 1007,2 hPa 0,0 l/m 0,0 km/h (0 Bft) N-NO 22 0 min 0,0 UV-I -0,6 C 0,7 C 0,0 km/h (0 Bft)
31.10.2012 04:25 1,1 C 11,4 C 1,2 C 1,0 C 0,7 C 0,0 C 89 % 95 % 0 % 1007,2 hPa 0,0 l/m 0,0 km/h (0 Bft) N-NO 22 0 min 0,0 UV-I -0,5 C 0,7 C 0,0 km/h (0 Bft)
31.10.2012 04:30 0,9 C 11,5 C 1,1 C 0,8 C 0,6 C 0,0 C 89 % 95 % 0 % 1007,2 hPa 0,0 l/m 0,0 km/h (0 Bft) N-NO 22 0 min 0,0 UV-I -0,7 C 0,6 C 0,0 km/h (0 Bft)
31.10.2012 04:35 0,8 C 11,4 C 1,1 C 0,7 C 0,6 C 0,0 C 88 % 95 % 0 % 1007,2 hPa 0,0 l/m 0,0 km/h (0 Bft) O-SO 112 0 min 0,0 UV-I -1,0 C 0,6 C 0,0 km/h (0 Bft)
31.10.2012 04:40 0,8 C 11,5 C 1,0 C 0,7 C 0,5 C 0,0 C 89 % 95 % 0 % 1008,4 hPa 0,0 l/m 0,0 km/h (0 Bft) O 90 0 min 0,0 UV-I -0,8 C 0,5 C 0,0 km/h (0 Bft)
31.10.2012 04:45 0,7 C 11,4 C 1,1 C 0,6 C 0,3 C 0,0 C 89 % 95 % 0 % 1008,4 hPa 0,0 l/m 0,0 km/h (0 Bft) O 90 0 min 0,0 UV-I -0,9 C 0,3 C 0,0 km/h (0 Bft)
31.10.2012 04:50 0,6 C 11,4 C 0,8 C 0,5 C 0,2 C 0,0 C 89 % 95 % 0 % 1008,4 hPa 0,0 l/m 0,0 km/h (0 Bft) O-NO 67 0 min 0,0 UV-I -1,0 C 0,2 C 0,0 km/h (0 Bft)
31.10.2012 04:55 0,4 C 11,4 C 0,8 C 0,3 C 0,0 C 0,0 C 89 % 95 % 0 % 1008,4 hPa 0,0 l/m 0,0 km/h (0 Bft) O 90 0 min 0,0 UV-I -1,2 C 0,0 C 0,0 km/h (0 Bft)
31.10.2012 05:00 0,4 C 11,4 C 0,7 C 0,2 C -0,2 C 0,0 C 89 % 95 % 0 % 1007,5 hPa 0,0 l/m 0,0 km/h (0 Bft) N-NO 22 0 min 0,0 UV-I -1,2 C -0,2 C 0,0 km/h (0 Bft)
31.10.2012 05:05 0,3 C 11,4 C 0,8 C 0,1 C -0,3 C 0,0 C 89 % 95 % 0 % 1007,5 hPa 0,0 l/m 0,0 km/h (0 Bft) N-NW 337 0 min 0,0 UV-I -1,3 C -0,3 C 0,0 km/h (0 Bft)
31.10.2012 05:10 0,3 C 11,4 C 0,7 C 0,1 C -0,3 C 0,0 C 89 % 95 % 0 % 1007,5 hPa 0,0 l/m 0,0 km/h (0 Bft) N-NW 337 0 min 0,0 UV-I -1,3 C -0,3 C 0,0 km/h (0 Bft)
31.10.2012 05:15 0,1 C 11,4 C 0,5 C 0,0 C -0,2 C 0,0 C 89 % 95 % 0 % 1007,5 hPa 0,0 l/m 0,0 km/h (0 Bft) N-NW 337 0 min 0,0 UV-I -1,5 C -0,2 C 0,0 km/h (0 Bft)
31.10.2012 05:20 0,1 C 11,4 C 0,4 C 0,0 C -0,2 C 0,0 C 89 % 95 % 0 % 1007,6 hPa 0,0 l/m 0,0 km/h (0 Bft) N-NW 337 0 min 0,0 UV-I -1,5 C -0,2 C 0,0 km/h (0 Bft)
31.10.2012 05:25 -0,1 C 11,4 C 0,3 C -0,1 C -0,2 C 0,0 C 89 % 95 % 0 % 1007,6 hPa 0,0 l/m 0,0 km/h (0 Bft) N-NW 337 0 min 0,0 UV-I -1,7 C -0,2 C 0,0 km/h (0 Bft)
31.10.2012 05:30 -0,1 C 11,4 C 0,3 C -0,1 C -0,2 C 0,0 C 89 % 95 % 0 % 1007,6 hPa 0,0 l/m 0,0 km/h (0 Bft) O-NO 67 0 min 0,0 UV-I -1,7 C -0,2 C 0,0 km/h (0 Bft)
31.10.2012 05:35 -0,2 C 11,4 C 0,2 C -0,2 C -0,2 C 0,0 C 89 % 95 % 0 % 1007,6 hPa 0,0 l/m 0,0 km/h (0 Bft) O-NO 67 0 min 0,0 UV-I -1,8 C -0,2 C 0,0 km/h (0 Bft)
31.10.2012 05:40 -0,3 C 11,4 C 0,3 C -0,3 C -0,3 C 0,0 C 89 % 95 % 0 % 1007,8 hPa 0,0 l/m 0,0 km/h (0 Bft) O-NO 67 0 min 0,0 UV-I -1,9 C -0,3 C 0,0 km/h (0 Bft)
31.10.2012 05:45 -0,4 C 11,4 C 0,3 C -0,5 C -0,8 C 0,0 C 89 % 96 % 0 % 1007,8 hPa 0,0 l/m 0,0 km/h (0 Bft) O-NO 67 0 min 0,0 UV-I -2,0 C -0,8 C 0,0 km/h (0 Bft)
31.10.2012 05:50 -0,5 C 11,4 C 0,0 C -0,7 C -1,0 C 0,0 C 89 % 96 % 0 % 1007,8 hPa 0,0 l/m 0,0 km/h (0 Bft) O-NO 67 0 min 0,0 UV-I -2,1 C -1,0 C 0,0 km/h (0 Bft)
31.10.2012 05:55 -0,7 C 11,4 C 0,1 C -0,8 C -1,1 C 0,0 C 89 % 96 % 0 % 1007,8 hPa 0,0 l/m 0,0 km/h (0 Bft) O-NO 67 0 min 0,0 UV-I -2,3 C -1,1 C 0,0 km/h (0 Bft)
31.10.2012 06:00 -0,7 C 11,4 C 0,0 C -0,9 C -1,2 C 0,0 C 89 % 96 % 0 % 1007,5 hPa 0,0 l/m 0,0 km/h (0 Bft) O-NO 67 0 min 0,0 UV-I -2,3 C -1,2 C 0,0 km/h (0 Bft)
31.10.2012 06:05 -0,9 C 11,4 C 0,0 C -1,0 C -1,2 C 0,0 C 89 % 96 % 0 % 1007,5 hPa 0,0 l/m 0,0 km/h (0 Bft) O-NO 67 0 min 0,0 UV-I -2,5 C -1,2 C 0,0 km/h (0 Bft)
31.10.2012 06:10 -0,9 C 11,4 C -0,1 C -1,1 C -1,5 C 0,0 C 89 % 96 % 0 % 1007,5 hPa 0,0 l/m 0,0 km/h (0 Bft) O-NO 67 0 min 0,0 UV-I -2,5 C -1,5 C 0,0 km/h (0 Bft)
31.10.2012 06:15 -1,1 C 11,4 C -0,1 C -1,3 C -1,7 C 0,0 C 89 % 96 % 0 % 1007,5 hPa 0,0 l/m 0,0 km/h (0 Bft) O-NO 67 0 min 0,0 UV-I -2,7 C -1,7 C 0,0 km/h (0 Bft)
31.10.2012 06:20 -1,2 C 11,4 C -0,1 C -1,3 C -1,6 C 0,0 C 89 % 96 % 0 % 1007,7 hPa 0,0 l/m 0,0 km/h (0 Bft) N-NO 22 0 min 0,0 UV-I -2,8 C -1,6 C 0,0 km/h (0 Bft)
31.10.2012 06:25 -1,1 C 11,3 C -0,1 C -1,1 C -1,2 C 0,0 C 89 % 96 % 0 % 1007,7 hPa 0,0 l/m 0,0 km/h (0 Bft) NW 315 0 min 0,0 UV-I -2,7 C -1,2 C 0,0 km/h (0 Bft)
31.10.2012 06:30 -1,0 C 11,4 C 0,0 C -1,0 C -1,0 C 0,0 C 90 % 96 % 0 % 1007,7 hPa 0,0 l/m 0,0 km/h (0 Bft) NW 315 0 min 0,0 UV-I -2,4 C -1,0 C 0,0 km/h (0 Bft)
31.10.2012 06:35 -0,9 C 11,3 C -0,1 C -0,9 C -0,9 C 0,0 C 90 % 96 % 0 % 1007,7 hPa 0,0 l/m 0,0 km/h (0 Bft) W 270 0 min 0,0 UV-I -2,3 C -0,9 C 0,0 km/h (0 Bft)
31.10.2012 06:46 -1,1 C 11,3 C 0,1 C -0,8 C -0,8 C 0,3 C 90 % 96 % 0 % 1007,6 hPa 0,0 l/m 0,0 km/h (0 Bft) N 0 0 min 0,0 UV-I -2,5 C -0,8 C 0,0 km/h (0 Bft)
31.10.2012 06:55 -1,1 C 11,3 C 0,2 C -0,6 C -0,6 C 0,5 C 90 % 96 % 0 % 1007,6 hPa 0,0 l/m 0,0 km/h (0 Bft) W-SW 247 0 min 0,0 UV-I -2,5 C -0,6 C 0,0 km/h (0 Bft)
31.10.2012 07:00 -1,1 C 11,3 C 0,3 C -0,5 C -0,5 C 0,6 C 90 % 96 % 0 % 1007,6 hPa 0,0 l/m 0,0 km/h (0 Bft) W 270 0 min 0,0 UV-I -2,5 C -0,5 C 0,0 km/h (0 Bft)
31.10.2012 07:05 -0,9 C 11,3 C 0,3 C -0,4 C -0,4 C 0,5 C 90 % 96 % 0 % 1007,6 hPa 0,0 l/m 0,0 km/h (0 Bft) SW 225 0 min 0,0 UV-I -2,3 C -0,4 C 0,0 km/h (0 Bft)
31.10.2012 07:10 -0,9 C 11,3 C 0,3 C -0,3 C -0,3 C 0,6 C 90 % 96 % 0 % 1007,6 hPa 0,0 l/m 0,0 km/h (0 Bft) W-SW 247 0 min 0,0 UV-I -2,3 C -0,3 C 0,0 km/h (0 Bft)
31.10.2012 07:15 -0,9 C 11,3 C 0,3 C -0,5 C -0,5 C 0,4 C 90 % 96 % 11 % 1007,6 hPa 0,0 l/m 0,3 km/h (0 Bft) SW 225 5 min 0,0 UV-I -2,3 C -0,5 C 0,0 km/h (0 Bft)
31.10.2012 07:20 -0,9 C 11,3 C 0,2 C -0,8 C -0,8 C 0,1 C 90 % 96 % 3 % 1007,9 hPa 0,0 l/m 0,3 km/h (0 Bft) SW 225 0 min 0,0 UV-I -2,3 C -0,8 C 0,0 km/h (0 Bft)
31.10.2012 07:25 -1,1 C 11,3 C 0,1 C -1,0 C -1,0 C 0,1 C 90 % 96 % 3 % 1007,9 hPa 0,0 l/m 0,0 km/h (0 Bft) SW 225 0 min 0,0 UV-I -2,5 C -1,0 C 0,0 km/h (0 Bft)
31.10.2012 07:30 -1,2 C 11,3 C 0,0 C -1,2 C -1,2 C 0,0 C 90 % 96 % 0 % 1007,9 hPa 0,0 l/m 0,0 km/h (0 Bft) W-SW 247 0 min 0,0 UV-I -2,6 C -1,2 C 0,0 km/h (0 Bft)
31.10.2012 07:35 -1,3 C 11,3 C 0,0 C -1,2 C -1,2 C 0,1 C 90 % 96 % 3 % 1007,9 hPa 0,0 l/m 0,0 km/h (0 Bft) W-NW 292 0 min 0,0 UV-I -2,7 C -1,2 C 0,0 km/h (0 Bft)
31.10.2012 07:40 -1,3 C 11,3 C 0,0 C -1,3 C -1,3 C 0,0 C 90 % 96 % 0 % 1007,9 hPa 0,0 l/m 0,0 km/h (0 Bft) W 270 0 min 0,0 UV-I -2,7 C -1,3 C 0,0 km/h (0 Bft)
31.10.2012 07:45 -1,3 C 11,3 C 0,0 C -1,3 C -1,3 C 0,0 C 90 % 96 % 0 % 1007,9 hPa 0,0 l/m 0,0 km/h (0 Bft) W-NW 292 0 min 0,0 UV-I -2,7 C -1,3 C 0,0 km/h (0 Bft)
31.10.2012 07:50 -1,3 C 11,3 C 0,0 C -1,0 C -1,0 C 0,3 C 90 % 96 % 8 % 1007,9 hPa 0,0 l/m 0,0 km/h (0 Bft) W-NW 292 0 min 0,0 UV-I -2,7 C -1,0 C 0,0 km/h (0 Bft)
31.10.2012 07:55 -1,3 C 11,3 C 0,1 C -0,7 C -0,7 C 0,6 C 90 % 96 % 16 % 1007,9 hPa 0,0 l/m 0,0 km/h (0 Bft) W 270 0 min 0,0 UV-I -2,7 C -0,7 C 0,0 km/h (0 Bft)
31.10.2012 08:00 -1,1 C 11,3 C 0,3 C -0,3 C -0,3 C 0,8 C 90 % 96 % 21 % 1008,3 hPa 0,0 l/m 0,0 km/h (0 Bft) W 270 0 min 0,0 UV-I -2,5 C -0,3 C 0,0 km/h (0 Bft)
31.10.2012 08:05 -1,2 C 11,3 C 0,4 C -0,1 C -0,1 C 1,1 C 90 % 96 % 29 % 1008,3 hPa 0,0 l/m 0,0 km/h (0 Bft) W 270 0 min 0,0 UV-I -2,6 C -0,1 C 0,0 km/h (0 Bft)
31.10.2012 08:10 -0,9 C 11,3 C 0,3 C -0,1 C -0,1 C 0,8 C 90 % 96 % 21 % 1008,3 hPa 0,0 l/m 0,0 km/h (0 Bft) W 270 0 min 0,0 UV-I -2,3 C -0,1 C 0,0 km/h (0 Bft)
31.10.2012 08:15 -0,9 C 11,3 C 0,2 C -0,2 C -0,2 C 0,7 C 90 % 96 % 18 % 1008,3 hPa 0,0 l/m 0,0 km/h (0 Bft) W 270 0 min 0,0 UV-I -2,3 C -0,2 C 0,0 km/h (0 Bft)
31.10.2012 08:20 -0,9 C 11,3 C 0,3 C -0,3 C -0,3 C 0,6 C 91 % 96 % 16 % 1008,2 hPa 0,0 l/m 0,0 km/h (0 Bft) W 270 0 min 0,0 UV-I -2,2 C -0,3 C 0,0 km/h (0 Bft)
31.10.2012 08:25 -0,9 C 11,3 C 0,3 C -0,2 C -0,2 C 0,7 C 91 % 96 % 18 % 1008,2 hPa 0,0 l/m 0,0 km/h (0 Bft) W 270 0 min 0,0 UV-I -2,2 C -0,2 C 0,0 km/h (0 Bft)
31.10.2012 08:30 -0,7 C 11,3 C 0,3 C -0,2 C -0,2 C 0,5 C 91 % 96 % 13 % 1008,2 hPa 0,0 l/m 0,0 km/h (0 Bft) W 270 0 min 0,0 UV-I -2,0 C -0,2 C 0,0 km/h (0 Bft)
31.10.2012 08:35 -0,7 C 11,3 C 0,3 C 0,0 C 0,0 C 0,7 C 91 % 96 % 18 % 1008,2 hPa 0,0 l/m 0,0 km/h (0 Bft) W 270 0 min 0,0 UV-I -2,0 C 0,0 C 0,0 km/h (0 Bft)
31.10.2012 08:40 -0,5 C 11,3 C 0,8 C 0,2 C 0,2 C 0,7 C 91 % 96 % 18 % 1008,8 hPa 0,0 l/m 0,2 km/h (0 Bft) W 270 0 min 0,0 UV-I -1,8 C 0,2 C 0,0 km/h (0 Bft)
31.10.2012 08:45 -0,5 C 11,3 C 1,0 C 0,6 C 0,6 C 1,1 C 91 % 96 % 29 % 1008,8 hPa 0,0 l/m 0,3 km/h (0 Bft) W 270 0 min 0,0 UV-I -1,8 C 0,6 C 0,0 km/h (0 Bft)
31.10.2012 08:50 -0,5 C 11,3 C 1,1 C 0,8 C 0,8 C 1,3 C 91 % 96 % 34 % 1008,8 hPa 0,0 l/m 0,2 km/h (0 Bft) W 270 0 min 0,0 UV-I -1,8 C 0,8 C 0,0 km/h (0 Bft)
31.10.2012 08:55 -0,3 C 11,2 C 1,4 C 1,3 C 1,3 C 1,6 C 91 % 96 % 42 % 1008,8 hPa 0,0 l/m 0,2 km/h (0 Bft) W-SW 247 0 min 0,0 UV-I -1,6 C 1,3 C 0,0 km/h (0 Bft)
31.10.2012 09:00 -0,2 C 11,3 C 1,5 C 1,5 C 1,5 C 1,7 C 91 % 96 % 45 % 1008,8 hPa 0,0 l/m 0,2 km/h (0 Bft) W-SW 247 0 min 0,0 UV-I -1,5 C 1,5 C 0,0 km/h (0 Bft)
31.10.2012 09:05 -0,1 C 11,3 C 1,8 C 1,9 C 1,9 C 2,0 C 91 % 96 % 53 % 1008,8 hPa 0,0 l/m 0,0 km/h (0 Bft) W-SW 247 0 min 0,0 UV-I -1,4 C 1,9 C 0,0 km/h (0 Bft)
31.10.2012 09:10 0,1 C 11,2 C 1,9 C 2,0 C 2,0 C 1,9 C 92 % 96 % 50 % 1008,8 hPa 0,0 l/m 1,0 km/h (0 Bft) W-SW 247 0 min 0,0 UV-I -1,0 C 2,0 C 2,7 km/h (1 Bft)
31.10.2012 09:15 0,1 C 11,2 C 1,7 C 1,7 C 1,7 C 1,6 C 91 % 96 % 42 % 1008,8 hPa 0,0 l/m 1,1 km/h (1 Bft) S-SW 202 0 min 0,0 UV-I -1,2 C 1,7 C 0,0 km/h (0 Bft)
31.10.2012 09:20 0,1 C 11,2 C 1,6 C 1,3 C 1,3 C 1,2 C 91 % 96 % 32 % 1008,8 hPa 0,0 l/m 0,5 km/h (0 Bft) W 270 0 min 0,0 UV-I -1,2 C 1,3 C 0,0 km/h (0 Bft)
31.10.2012 09:25 0,1 C 11,2 C 1,5 C 1,0 C 1,0 C 0,9 C 91 % 96 % 24 % 1008,8 hPa 0,0 l/m 0,0 km/h (0 Bft) SW 225 0 min 0,0 UV-I -1,2 C 1,0 C 0,0 km/h (0 Bft)
31.10.2012 09:30 0,1 C 11,2 C 1,5 C 0,9 C 0,9 C 0,8 C 91 % 95 % 21 % 1008,8 hPa 0,0 l/m 0,0 km/h (0 Bft) O-SO 112 0 min 0,0 UV-I -1,2 C 0,9 C 0,0 km/h (0 Bft)
31.10.2012 09:35 0,3 C 11,2 C 1,6 C 1,2 C 1,2 C 0,9 C 91 % 96 % 24 % 1008,8 hPa 0,0 l/m 0,0 km/h (0 Bft) O-SO 112 0 min 0,0 UV-I -1,0 C 1,2 C 0,0 km/h (0 Bft)
31.10.2012 09:40 0,5 C 11,2 C 1,8 C 1,5 C 1,5 C 1,0 C 91 % 96 % 26 % 1008,8 hPa 0,0 l/m 0,0 km/h (0 Bft) O-SO 112 0 min 0,0 UV-I -0,8 C 1,5 C 0,0 km/h (0 Bft)
31.10.2012 09:45 0,7 C 11,0 C 2,0 C 1,9 C 1,9 C 1,2 C 92 % 96 % 32 % 1008,8 hPa 0,0 l/m 0,0 km/h (0 Bft) O-SO 112 0 min 0,1 UV-I -0,4 C 1,9 C 0,0 km/h (0 Bft)
31.10.2012 09:50 0,8 C 11,0 C 2,3 C 2,2 C 2,2 C 1,4 C 92 % 96 % 37 % 1008,8 hPa 0,0 l/m 0,0 km/h (0 Bft) W-SW 247 0 min 0,1 UV-I -0,3 C 2,2 C 0,0 km/h (0 Bft)
31.10.2012 09:55 1,3 C 11,1 C 2,4 C 2,7 C 2,7 C 1,4 C 92 % 96 % 37 % 1008,8 hPa 0,0 l/m 0,0 km/h (0 Bft) W-SW 247 0 min 0,1 UV-I 0,1 C 2,7 C 0,0 km/h (0 Bft)
31.10.2012 10:00 1,5 C 11,1 C 2,7 C 3,1 C 3,1 C 1,6 C 92 % 96 % 42 % 1008,1 hPa 0,0 l/m 0,0 km/h (0 Bft) SW 225 0 min 0,1 UV-I 0,3 C 3,1 C 0,0 km/h (0 Bft)
31.10.2012 10:05 1,9 C 11,1 C 2,9 C 3,8 C 3,8 C 1,9 C 92 % 96 % 50 % 1008,1 hPa 0,0 l/m 0,2 km/h (0 Bft) W-SW 247 0 min 0,1 UV-I 0,7 C 3,8 C 1,6 km/h (1 Bft)
31.10.2012 10:10 2,1 C 11,0 C 3,2 C 4,4 C 4,4 C 2,3 C 92 % 96 % 61 % 1008,1 hPa 0,0 l/m 0,6 km/h (0 Bft) W-SW 247 0 min 0,1 UV-I 0,9 C 4,4 C 2,3 km/h (1 Bft)
31.10.2012 10:15 2,5 C 11,0 C 3,6 C 5,1 C 5,1 C 2,6 C 93 % 96 % 68 % 1008,1 hPa 0,0 l/m 1,0 km/h (0 Bft) W-SW 247 0 min 0,1 UV-I 1,5 C 5,1 C 1,6 km/h (1 Bft)
31.10.2012 10:20 2,7 C 11,0 C 3,9 C 5,4 C 5,4 C 2,7 C 93 % 96 % 71 % 1008,2 hPa 0,0 l/m 0,6 km/h (0 Bft) W-SW 247 0 min 0,2 UV-I 1,7 C 5,4 C 0,0 km/h (0 Bft)
31.10.2012 10:25 3,0 C 10,9 C 4,2 C 5,6 C 5,6 C 2,6 C 93 % 96 % 68 % 1008,2 hPa 0,0 l/m 1,3 km/h (1 Bft) W-SW 247 0 min 0,2 UV-I 2,0 C 5,6 C 2,3 km/h (1 Bft)
31.10.2012 10:30 3,2 C 11,0 C 4,3 C 5,6 C 5,6 C 2,4 C 93 % 96 % 63 % 1008,2 hPa 0,0 l/m 1,8 km/h (1 Bft) W-SW 247 0 min 0,2 UV-I 2,2 C 5,6 C 1,8 km/h (1 Bft)
31.10.2012 10:35 3,6 C 10,9 C 4,7 C 5,9 C 5,9 C 2,3 C 93 % 96 % 61 % 1008,2 hPa 0,0 l/m 1,6 km/h (1 Bft) W-SW 247 0 min 0,2 UV-I 2,6 C 5,9 C 3,1 km/h (1 Bft)
31.10.2012 10:40 3,9 C 11,0 C 5,0 C 6,4 C 6,4 C 2,5 C 93 % 96 % 66 % 1007,2 hPa 0,0 l/m 1,8 km/h (1 Bft) W-SW 247 0 min 0,2 UV-I 2,9 C 6,4 C 2,3 km/h (1 Bft)
31.10.2012 10:45 4,2 C 11,0 C 5,2 C 6,8 C 6,8 C 2,6 C 93 % 96 % 68 % 1007,2 hPa 0,0 l/m 1,3 km/h (1 Bft) S 180 0 min 0,3 UV-I 3,2 C 6,8 C 0,0 km/h (0 Bft)
31.10.2012 10:50 4,4 C 11,0 C 5,4 C 7,3 C 7,3 C 2,9 C 93 % 96 % 76 % 1007,2 hPa 0,0 l/m 1,0 km/h (0 Bft) W 270 0 min 0,3 UV-I 3,4 C 7,3 C 0,0 km/h (0 Bft)
31.10.2012 10:55 4,7 C 10,9 C 5,6 C 8,5 C 8,5 C 3,8 C 93 % 96 % 100 % 1007,2 hPa 0,0 l/m 0,5 km/h (0 Bft) W-SW 247 5 min 0,3 UV-I 3,7 C 8,5 C 0,0 km/h (0 Bft)
31.10.2012 11:00 4,9 C 10,9 C 5,7 C 9,0 C 9,0 C 4,1 C 93 % 96 % 100 % 1007,1 hPa 0,0 l/m 0,5 km/h (0 Bft) W 270 5 min 0,3 UV-I 3,9 C 9,0 C 2,3 km/h (1 Bft)
31.10.2012 11:05 5,4 C 10,9 C 5,8 C 9,3 C 9,3 C 3,9 C 93 % 96 % 100 % 1007,1 hPa 0,0 l/m 1,4 km/h (1 Bft) W-SW 247 5 min 0,3 UV-I 4,4 C 9,3 C 3,7 km/h (1 Bft)
31.10.2012 11:10 5,7 C 10,9 C 6,1 C 9,4 C 9,4 C 3,7 C 92 % 96 % 97 % 1007,1 hPa 0,0 l/m 1,9 km/h (1 Bft) S-SO 157 5 min 0,3 UV-I 4,5 C 9,4 C 0,0 km/h (0 Bft)
31.10.2012 11:15 6,2 C 10,9 C 6,3 C 9,6 C 9,6 C 3,4 C 92 % 96 % 89 % 1007,1 hPa 0,0 l/m 1,3 km/h (1 Bft) SO 135 5 min 0,3 UV-I 5,0 C 9,6 C 0,0 km/h (0 Bft)
31.10.2012 11:20 6,5 C 10,9 C 6,4 C 9,9 C 9,9 C 3,4 C 92 % 96 % 89 % 1006,9 hPa 0,0 l/m 0,6 km/h (0 Bft) S 180 5 min 0,4 UV-I 5,3 C 9,9 C 0,0 km/h (0 Bft)
31.10.2012 11:25 6,9 C 10,9 C 6,5 C 10,8 C 10,8 C 3,9 C 90 % 96 % 100 % 1006,9 hPa 0,0 l/m 0,2 km/h (0 Bft) W 270 5 min 0,4 UV-I 5,4 C 10,8 C 0,0 km/h (0 Bft)
31.10.2012 11:30 6,9 C 10,9 C 6,7 C 12,0 C 12,0 C 5,1 C 89 % 96 % 100 % 1006,9 hPa 0,0 l/m 0,8 km/h (0 Bft) SW 225 5 min 0,4 UV-I 5,2 C 12,0 C 1,8 km/h (1 Bft)
31.10.2012 11:35 7,1 C 10,9 C 6,9 C 13,6 C 13,6 C 6,5 C 88 % 96 % 100 % 1006,9 hPa 0,0 l/m 0,6 km/h (0 Bft) NO 45 5 min 0,4 UV-I 5,2 C 13,6 C 0,0 km/h (0 Bft)
31.10.2012 11:40 7,3 C 10,9 C 7,1 C 14,6 C 14,6 C 7,3 C 88 % 96 % 100 % 1006,9 hPa 0,0 l/m 0,3 km/h (0 Bft) SW 225 5 min 0,4 UV-I 5,4 C 14,6 C 1,9 km/h (1 Bft)
31.10.2012 11:45 7,5 C 10,9 C 7,2 C 15,6 C 15,6 C 8,1 C 86 % 96 % 100 % 1006,9 hPa 0,0 l/m 0,5 km/h (0 Bft) W-NW 292 5 min 0,4 UV-I 5,3 C 15,6 C 1,8 km/h (1 Bft)
31.10.2012 11:50 7,7 C 10,9 C 7,5 C 15,8 C 15,8 C 8,1 C 84 % 96 % 100 % 1006,9 hPa 0,0 l/m 0,8 km/h (0 Bft) SW 225 5 min 0,4 UV-I 5,2 C 15,8 C 3,4 km/h (1 Bft)
31.10.2012 11:55 8,2 C 10,9 C 7,7 C 15,2 C 15,2 C 7,0 C 83 % 96 % 100 % 1006,9 hPa 0,0 l/m 1,1 km/h (1 Bft) S-SO 157 5 min 0,4 UV-I 5,5 C 15,2 C 3,2 km/h (1 Bft)
31.10.2012 12:00 8,5 C 10,9 C 7,6 C 14,9 C 14,9 C 6,4 C 81 % 96 % 100 % 1006,3 hPa 0,0 l/m 1,6 km/h (1 Bft) S 180 5 min 0,4 UV-I 5,4 C 14,9 C 5,3 km/h (1 Bft)
31.10.2012 12:05 8,8 C 11,0 C 7,8 C 14,6 C 14,6 C 5,8 C 79 % 96 % 100 % 1006,3 hPa 0,0 l/m 2,4 km/h (1 Bft) SW 225 5 min 0,4 UV-I 5,4 C 14,6 C 8,2 km/h (2 Bft)
31.10.2012 12:10 9,1 C 11,0 C 8,0 C 14,1 C 14,1 C 5,0 C 78 % 96 % 100 % 1006,3 hPa 0,0 l/m 2,9 km/h (1 Bft) O 90 5 min 0,4 UV-I 5,5 C 14,1 C 2,1 km/h (1 Bft)
31.10.2012 12:15 9,2 C 11,0 C 8,0 C 13,7 C 13,7 C 4,5 C 78 % 96 % 100 % 1006,3 hPa 0,0 l/m 1,8 km/h (1 Bft) S-SW 202 5 min 0,4 UV-I 5,6 C 13,7 C 1,8 km/h (1 Bft)
31.10.2012 12:20 9,4 C 11,0 C 8,3 C 13,4 C 13,4 C 4,0 C 77 % 96 % 100 % 1006,3 hPa 0,0 l/m 1,3 km/h (1 Bft) SO 135 5 min 0,4 UV-I 5,6 C 13,4 C 3,5 km/h (1 Bft)
31.10.2012 12:25 9,6 C 11,0 C 8,4 C 13,4 C 13,4 C 3,8 C 76 % 96 % 100 % 1006,3 hPa 0,0 l/m 1,4 km/h (1 Bft) W-SW 247 5 min 0,4 UV-I 5,6 C 13,4 C 4,3 km/h (1 Bft)
31.10.2012 12:30 9,7 C 11,0 C 8,4 C 13,0 C 13,0 C 3,3 C 75 % 96 % 87 % 1006,3 hPa 0,0 l/m 1,9 km/h (1 Bft) SW 225 5 min 0,4 UV-I 5,5 C 13,0 C 4,7 km/h (1 Bft)
31.10.2012 12:35 9,9 C 11,1 C 8,5 C 12,4 C 12,4 C 2,5 C 75 % 96 % 66 % 1006,3 hPa 0,0 l/m 3,2 km/h (1 Bft) O 90 0 min 0,4 UV-I 5,7 C 12,4 C 0,0 km/h (0 Bft)
31.10.2012 12:46 10,2 C 11,1 C 8,9 C 11,9 C 11,9 C 1,7 C 74 % 96 % 45 % 1006,1 hPa 0,0 l/m 1,3 km/h (1 Bft) N 0 0 min 0,4 UV-I 5,8 C 11,9 C 0,0 km/h (0 Bft)
31.10.2012 12:55 10,5 C 11,1 C 9,0 C 12,4 C 12,4 C 1,9 C 72 % 96 % 50 % 1006,1 hPa 0,0 l/m 1,8 km/h (1 Bft) S 180 0 min 0,4 UV-I 5,7 C 12,4 C 3,9 km/h (1 Bft)
31.10.2012 13:00 10,7 C 11,1 C 9,2 C 12,8 C 12,8 C 2,1 C 72 % 96 % 55 % 1005,9 hPa 0,0 l/m 1,8 km/h (1 Bft) O-NO 67 0 min 0,4 UV-I 5,9 C 12,8 C 2,9 km/h (1 Bft)
31.10.2012 13:05 10,8 C 11,1 C 9,5 C 12,6 C 12,6 C 1,8 C 71 % 96 % 47 % 1005,9 hPa 0,0 l/m 2,6 km/h (1 Bft) W-NW 292 0 min 0,4 UV-I 5,8 C 12,6 C 3,4 km/h (1 Bft)
31.10.2012 13:10 10,9 C 11,1 C 9,6 C 12,7 C 12,7 C 1,8 C 70 % 96 % 47 % 1005,9 hPa 0,0 l/m 1,8 km/h (1 Bft) S 180 0 min 0,4 UV-I 5,6 C 12,7 C 2,3 km/h (1 Bft)
31.10.2012 13:15 11,1 C 11,1 C 9,7 C 13,8 C 13,8 C 2,7 C 70 % 95 % 71 % 1005,9 hPa 0,0 l/m 1,9 km/h (1 Bft) SW 225 0 min 0,4 UV-I 5,8 C 13,8 C 2,1 km/h (1 Bft)
31.10.2012 13:20 11,2 C 11,1 C 9,7 C 14,1 C 14,1 C 2,9 C 69 % 95 % 76 % 1005,4 hPa 0,0 l/m 2,4 km/h (1 Bft) S 180 0 min 0,3 UV-I 5,7 C 14,1 C 4,0 km/h (1 Bft)
31.10.2012 13:25 11,3 C 11,3 C 9,9 C 14,7 C 14,7 C 3,4 C 69 % 95 % 89 % 1005,4 hPa 0,0 l/m 1,4 km/h (1 Bft) O-NO 67 5 min 0,3 UV-I 5,8 C 14,7 C 0,0 km/h (0 Bft)
31.10.2012 13:30 11,4 C 11,3 C 10,0 C 14,7 C 14,7 C 3,3 C 66 % 95 % 87 % 1005,4 hPa 0,0 l/m 1,9 km/h (1 Bft) W-SW 247 5 min 0,3 UV-I 5,3 C 14,7 C 6,0 km/h (2 Bft)
31.10.2012 13:35 11,5 C 11,3 C 10,3 C 15,0 C 15,0 C 3,5 C 64 % 94 % 92 % 1005,4 hPa 0,0 l/m 2,9 km/h (1 Bft) S-SO 157 5 min 0,3 UV-I 4,9 C 15,0 C 4,7 km/h (1 Bft)
31.10.2012 13:40 11,5 C 11,3 C 10,3 C 14,9 C 14,9 C 3,4 C 64 % 94 % 89 % 1005,3 hPa 0,0 l/m 2,9 km/h (1 Bft) W-SW 247 5 min 0,3 UV-I 4,9 C 14,9 C 5,1 km/h (1 Bft)
31.10.2012 13:45 11,6 C 11,4 C 10,3 C 14,3 C 14,3 C 2,7 C 63 % 93 % 71 % 1005,3 hPa 0,0 l/m 2,6 km/h (1 Bft) S 180 0 min 0,2 UV-I 4,8 C 14,3 C 12,9 km/h (3 Bft)
31.10.2012 13:51 11,6 C 11,3 C 10,3 C 13,8 C 13,8 C 2,2 C 62 % 92 % 58 % 1005,3 hPa 0,0 l/m 2,7 km/h (1 Bft) O-SO 112 0 min 0,2 UV-I 4,6 C 13,8 C 5,5 km/h (1 Bft)
31.10.2012 13:55 11,7 C 11,3 C 10,4 C 13,4 C 13,4 C 1,7 C 63 % 91 % 45 % 1005,3 hPa 0,0 l/m 3,4 km/h (1 Bft) SW 225 0 min 0,2 UV-I 4,9 C 13,4 C 4,0 km/h (1 Bft)
31.10.2012 14:00 11,7 C 11,3 C 10,5 C 13,8 C 13,8 C 2,1 C 63 % 91 % 55 % 1005,2 hPa 0,0 l/m 2,7 km/h (1 Bft) O-NO 67 0 min 0,2 UV-I 4,9 C 13,8 C 0,0 km/h (0 Bft)
31.10.2012 14:05 11,6 C 11,3 C 10,4 C 14,9 C 14,9 C 3,3 C 63 % 89 % 87 % 1005,2 hPa 0,0 l/m 1,9 km/h (1 Bft) W 270 5 min 0,2 UV-I 4,8 C 14,9 C 4,5 km/h (1 Bft)
31.10.2012 14:10 11,6 C 11,4 C 10,4 C 15,0 C 15,0 C 3,4 C 64 % 89 % 89 % 1005,2 hPa 0,0 l/m 1,3 km/h (1 Bft) S 180 5 min 0,2 UV-I 5,0 C 15,0 C 4,7 km/h (1 Bft)
31.10.2012 14:15 11,7 C 11,4 C 10,4 C 14,8 C 14,8 C 3,1 C 64 % 88 % 82 % 1005,2 hPa 0,0 l/m 1,3 km/h (1 Bft) O-NO 67 0 min 0,2 UV-I 5,1 C 14,8 C 3,1 km/h (1 Bft)
31.10.2012 14:20 11,6 C 11,4 C 10,3 C 15,0 C 15,0 C 3,4 C 64 % 88 % 89 % 1005,3 hPa 0,0 l/m 1,4 km/h (1 Bft) O-SO 112 5 min 0,1 UV-I 5,0 C 15,0 C 5,8 km/h (2 Bft)
31.10.2012 14:25 11,7 C 11,4 C 10,4 C 15,3 C 15,3 C 3,6 C 64 % 88 % 95 % 1005,3 hPa 0,0 l/m 1,4 km/h (1 Bft) S-SW 202 5 min 0,1 UV-I 5,1 C 15,3 C 2,3 km/h (1 Bft)
31.10.2012 14:30 11,6 C 11,4 C 10,4 C 15,7 C 15,7 C 4,1 C 64 % 88 % 100 % 1005,3 hPa 0,0 l/m 1,8 km/h (1 Bft) O-SO 112 5 min 0,1 UV-I 5,0 C 15,7 C 2,3 km/h (1 Bft)
31.10.2012 14:35 11,5 C 11,4 C 10,4 C 15,9 C 15,9 C 4,4 C 64 % 87 % 100 % 1005,3 hPa 0,0 l/m 1,6 km/h (1 Bft) O 90 5 min 0,1 UV-I 4,9 C 15,9 C 0,0 km/h (0 Bft)
31.10.2012 14:40 11,5 C 11,4 C 10,3 C 16,3 C 16,3 C 4,8 C 64 % 87 % 100 % 1005,1 hPa 0,0 l/m 1,3 km/h (1 Bft) O-NO 67 5 min 0,1 UV-I 4,9 C 16,3 C 1,6 km/h (1 Bft)
31.10.2012 14:45 11,7 C 11,5 C 10,5 C 16,8 C 16,8 C 5,1 C 63 % 87 % 100 % 1005,1 hPa 0,0 l/m 1,3 km/h (1 Bft) O-NO 67 5 min 0,0 UV-I 4,9 C 16,8 C 3,2 km/h (1 Bft)
31.10.2012 14:50 11,7 C 11,5 C 10,4 C 16,8 C 16,8 C 5,1 C 63 % 86 % 100 % 1005,1 hPa 0,0 l/m 1,3 km/h (1 Bft) W-NW 292 5 min 0,0 UV-I 4,9 C 16,8 C 0,0 km/h (0 Bft)
31.10.2012 14:55 11,4 C 11,5 C 10,3 C 16,7 C 16,7 C 5,3 C 63 % 86 % 100 % 1005,1 hPa 0,0 l/m 1,4 km/h (1 Bft) O-NO 67 5 min 0,0 UV-I 4,6 C 16,7 C 0,0 km/h (0 Bft)
31.10.2012 15:00 11,4 C 11,5 C 10,2 C 16,6 C 16,6 C 5,2 C 63 % 84 % 100 % 1004,7 hPa 0,0 l/m 1,6 km/h (1 Bft) S 180 5 min 0,0 UV-I 4,6 C 16,6 C 4,3 km/h (1 Bft)
31.10.2012 15:05 11,3 C 11,5 C 10,1 C 16,4 C 16,4 C 5,1 C 63 % 84 % 100 % 1004,7 hPa 0,0 l/m 1,6 km/h (1 Bft) NO 45 5 min 0,0 UV-I 4,5 C 16,4 C 2,3 km/h (1 Bft)
31.10.2012 15:10 11,3 C 11,6 C 10,1 C 16,2 C 16,2 C 4,9 C 63 % 85 % 100 % 1004,7 hPa 0,0 l/m 1,6 km/h (1 Bft) O 90 5 min 0,0 UV-I 4,5 C 16,2 C 2,3 km/h (1 Bft)
31.10.2012 15:15 11,1 C 11,7 C 9,9 C 16,0 C 16,0 C 4,9 C 63 % 85 % 100 % 1004,7 hPa 0,0 l/m 1,6 km/h (1 Bft) SO 135 5 min 0,0 UV-I 4,3 C 16,0 C 3,5 km/h (1 Bft)
31.10.2012 15:20 10,8 C 11,7 C 9,7 C 15,6 C 15,6 C 4,8 C 63 % 85 % 100 % 1004,8 hPa 0,0 l/m 1,9 km/h (1 Bft) O 90 5 min 0,0 UV-I 4,0 C 15,6 C 3,1 km/h (1 Bft)
31.10.2012 15:25 10,6 C 11,7 C 9,6 C 15,3 C 15,3 C 4,7 C 64 % 85 % 100 % 1004,8 hPa 0,0 l/m 1,6 km/h (1 Bft) O 90 5 min 0,0 UV-I 4,1 C 15,3 C 3,9 km/h (1 Bft)
31.10.2012 15:30 10,4 C 11,7 C 9,3 C 15,0 C 15,0 C 4,6 C 65 % 85 % 100 % 1004,8 hPa 0,0 l/m 1,8 km/h (1 Bft) O-NO 67 5 min 0,0 UV-I 4,1 C 15,0 C 4,0 km/h (1 Bft)
31.10.2012 15:35 10,3 C 11,7 C 9,1 C 14,4 C 14,4 C 4,1 C 66 % 86 % 100 % 1004,8 hPa 0,0 l/m 2,4 km/h (1 Bft) O-NO 67 5 min 0,0 UV-I 4,2 C 14,4 C 3,2 km/h (1 Bft)
31.10.2012 15:40 10,0 C 11,7 C 8,9 C 13,8 C 13,8 C 3,8 C 67 % 86 % 100 % 1004,2 hPa 0,0 l/m 2,7 km/h (1 Bft) O-NO 67 5 min 0,0 UV-I 4,2 C 13,8 C 2,1 km/h (1 Bft)
31.10.2012 15:45 9,9 C 11,7 C 8,7 C 13,2 C 13,2 C 3,3 C 67 % 86 % 87 % 1004,2 hPa 0,0 l/m 2,9 km/h (1 Bft) O-NO 67 5 min 0,0 UV-I 4,1 C 13,2 C 2,9 km/h (1 Bft)
31.10.2012 15:50 9,6 C 11,7 C 8,6 C 12,7 C 12,7 C 3,1 C 68 % 86 % 82 % 1004,2 hPa 0,0 l/m 2,7 km/h (1 Bft) O 90 5 min 0,0 UV-I 4,0 C 12,7 C 2,7 km/h (1 Bft)
31.10.2012 15:55 9,5 C 11,7 C 8,4 C 12,3 C 12,3 C 2,8 C 68 % 87 % 74 % 1004,2 hPa 0,0 l/m 1,9 km/h (1 Bft) O-SO 112 5 min 0,0 UV-I 3,9 C 12,3 C 2,6 km/h (1 Bft)
31.10.2012 16:00 9,3 C 11,8 C 8,3 C 12,3 C 12,3 C 3,0 C 69 % 87 % 79 % 1004,4 hPa 0,0 l/m 1,4 km/h (1 Bft) O-NO 67 5 min 0,0 UV-I 3,9 C 12,3 C 2,1 km/h (1 Bft)
31.10.2012 16:05 9,2 C 11,8 C 7,9 C 12,0 C 12,0 C 2,8 C 70 % 87 % 74 % 1004,4 hPa 0,0 l/m 1,3 km/h (1 Bft) O-SO 112 5 min 0,0 UV-I 4,0 C 12,0 C 2,9 km/h (1 Bft)
31.10.2012 16:10 9,0 C 11,8 C 7,7 C 11,7 C 11,7 C 2,7 C 70 % 87 % 71 % 1004,4 hPa 0,0 l/m 1,4 km/h (1 Bft) O-SO 112 5 min 0,0 UV-I 3,8 C 11,7 C 0,0 km/h (0 Bft)
31.10.2012 16:15 8,9 C 11,8 C 7,6 C 11,3 C 11,3 C 2,4 C 70 % 87 % 63 % 1004,4 hPa 0,0 l/m 1,3 km/h (1 Bft) O-NO 67 5 min 0,0 UV-I 3,7 C 11,3 C 0,0 km/h (0 Bft)
31.10.2012 16:20 8,8 C 11,8 C 7,5 C 11,0 C 11,0 C 2,2 C 71 % 88 % 58 % 1004,4 hPa 0,0 l/m 1,3 km/h (1 Bft) O-SO 112 5 min 0,0 UV-I 3,8 C 11,0 C 2,1 km/h (1 Bft)
31.10.2012 16:25 8,7 C 11,8 C 7,3 C 10,5 C 10,5 C 1,8 C 72 % 88 % 47 % 1004,4 hPa 0,0 l/m 1,8 km/h (1 Bft) O 90 5 min 0,0 UV-I 3,9 C 10,5 C 0,0 km/h (0 Bft)
31.10.2012 16:30 8,5 C 11,8 C 7,1 C 10,2 C 10,2 C 1,7 C 72 % 88 % 45 % 1004,4 hPa 0,0 l/m 1,1 km/h (1 Bft) O-SO 112 5 min 0,0 UV-I 3,7 C 10,2 C 0,0 km/h (0 Bft)
31.10.2012 16:35 8,5 C 11,8 C 6,8 C 9,5 C 9,5 C 1,0 C 73 % 88 % 0 % 1004,4 hPa 0,0 l/m 0,6 km/h (0 Bft) SO 135 0 min 0,0 UV-I 3,9 C 9,5 C 0,0 km/h (0 Bft)
31.10.2012 16:40 8,3 C 11,8 C 6,8 C 8,8 C 8,8 C 0,5 C 72 % 88 % 0 % 1004,1 hPa 0,0 l/m 1,1 km/h (1 Bft) O-NO 67 0 min 0,0 UV-I 3,6 C 8,8 C 4,2 km/h (1 Bft)
31.10.2012 16:45 8,1 C 11,9 C 6,5 C 8,1 C 8,0 C 0,0 C 74 % 89 % 0 % 1004,1 hPa 0,0 l/m 1,6 km/h (1 Bft) O-NO 67 0 min 0,0 UV-I 3,8 C 8,0 C 3,2 km/h (1 Bft)
31.10.2012 16:50 8,1 C 11,9 C 6,4 C 7,9 C 7,6 C 0,0 C 74 % 89 % 0 % 1004,1 hPa 0,0 l/m 2,7 km/h (1 Bft) O-NO 67 0 min 0,0 UV-I 3,8 C 7,6 C 6,0 km/h (2 Bft)
31.10.2012 16:55 7,9 C 11,9 C 6,3 C 7,7 C 7,2 C 0,0 C 75 % 89 % 0 % 1004,1 hPa 0,0 l/m 3,2 km/h (1 Bft) NO 45 0 min 0,0 UV-I 3,7 C 7,2 C 3,1 km/h (1 Bft)
31.10.2012 17:00 7,7 C 11,9 C 6,1 C 7,4 C 6,9 C 0,0 C 75 % 89 % 0 % 1003,9 hPa 0,0 l/m 2,4 km/h (1 Bft) N-NW 337 0 min 0,0 UV-I 3,6 C 6,9 C 0,0 km/h (0 Bft)
31.10.2012 17:05 7,5 C 12,0 C 5,9 C 7,1 C 6,4 C 0,0 C 76 % 89 % 0 % 1003,9 hPa 0,0 l/m 1,0 km/h (0 Bft) N-NO 22 0 min 0,0 UV-I 3,5 C 6,4 C 1,6 km/h (1 Bft)
31.10.2012 17:10 7,3 C 12,0 C 5,8 C 6,8 C 5,9 C 0,0 C 76 % 89 % 0 % 1003,9 hPa 0,0 l/m 0,6 km/h (0 Bft) N-NO 22 0 min 0,0 UV-I 3,4 C 5,9 C 1,6 km/h (1 Bft)
31.10.2012 17:15 6,9 C 12,0 C 5,5 C 6,4 C 5,4 C 0,0 C 77 % 89 % 0 % 1003,9 hPa 0,0 l/m 0,5 km/h (0 Bft) N 360 0 min 0,0 UV-I 3,2 C 5,4 C 2,6 km/h (1 Bft)
31.10.2012 17:20 6,8 C 12,1 C 5,3 C 6,3 C 5,3 C 0,0 C 78 % 90 % 0 % 1003,6 hPa 0,0 l/m 1,0 km/h (0 Bft) N-NO 22 0 min 0,0 UV-I 3,2 C 5,3 C 1,8 km/h (1 Bft)
31.10.2012 17:25 6,5 C 12,0 C 5,1 C 6,0 C 5,0 C 0,0 C 78 % 90 % 0 % 1003,6 hPa 0,0 l/m 0,8 km/h (0 Bft) N-NO 22 0 min 0,0 UV-I 2,9 C 5,0 C 0,0 km/h (0 Bft)
31.10.2012 17:30 6,3 C 12,1 C 4,9 C 5,8 C 4,7 C 0,0 C 78 % 90 % 0 % 1003,6 hPa 0,0 l/m 0,8 km/h (0 Bft) O-NO 67 0 min 0,0 UV-I 2,8 C 4,7 C 3,1 km/h (1 Bft)
31.10.2012 17:35 6,0 C 12,1 C 4,8 C 5,6 C 4,7 C 0,0 C 79 % 91 % 0 % 1003,6 hPa 0,0 l/m 1,6 km/h (1 Bft) O-NO 67 0 min 0,0 UV-I 2,6 C 4,7 C 1,8 km/h (1 Bft)
31.10.2012 17:40 5,9 C 12,1 C 4,7 C 5,4 C 4,5 C 0,0 C 80 % 91 % 0 % 1004,0 hPa 0,0 l/m 1,4 km/h (1 Bft) N-NW 337 0 min 0,0 UV-I 2,7 C 4,5 C 0,0 km/h (0 Bft)
31.10.2012 17:45 5,7 C 12,1 C 4,7 C 5,2 C 4,1 C 0,0 C 80 % 91 % 0 % 1004,0 hPa 0,0 l/m 0,5 km/h (0 Bft) S 180 0 min 0,0 UV-I 2,5 C 4,1 C 0,0 km/h (0 Bft)
31.10.2012 17:50 5,5 C 12,1 C 4,5 C 4,9 C 3,7 C 0,0 C 80 % 91 % 0 % 1004,0 hPa 0,0 l/m 0,3 km/h (0 Bft) O-NO 67 0 min 0,0 UV-I 2,3 C 3,7 C 1,8 km/h (1 Bft)
31.10.2012 17:55 5,2 C 12,1 C 4,1 C 4,7 C 3,6 C 0,0 C 81 % 91 % 0 % 1004,0 hPa 0,0 l/m 0,0 km/h (0 Bft) O 90 0 min 0,0 UV-I 2,2 C 3,6 C 0,0 km/h (0 Bft)
31.10.2012 18:00 4,9 C 12,2 C 3,9 C 4,4 C 3,4 C 0,0 C 81 % 91 % 0 % 1003,6 hPa 0,0 l/m 0,0 km/h (0 Bft) NO 45 0 min 0,0 UV-I 1,9 C 3,4 C 0,0 km/h (0 Bft)
31.10.2012 18:05 4,7 C 12,2 C 3,6 C 4,2 C 3,3 C 0,0 C 81 % 91 % 0 % 1003,6 hPa 0,0 l/m 0,0 km/h (0 Bft) NO 45 0 min 0,0 UV-I 1,7 C 3,3 C 0,0 km/h (0 Bft)
31.10.2012 18:10 4,5 C 12,2 C 3,6 C 4,1 C 3,2 C 0,0 C 82 % 91 % 0 % 1003,6 hPa 0,0 l/m 0,0 km/h (0 Bft) N-NO 22 0 min 0,0 UV-I 1,7 C 3,2 C 0,0 km/h (0 Bft)
31.10.2012 18:15 4,1 C 12,2 C 3,4 C 3,8 C 3,1 C 0,0 C 83 % 91 % 0 % 1003,6 hPa 0,0 l/m 0,0 km/h (0 Bft) N-NO 22 0 min 0,0 UV-I 1,5 C 3,1 C 0,0 km/h (0 Bft)
31.10.2012 18:20 4,0 C 12,2 C 3,4 C 3,7 C 3,1 C 0,0 C 83 % 92 % 0 % 1003,6 hPa 0,0 l/m 0,0 km/h (0 Bft) N-NO 22 0 min 0,0 UV-I 1,4 C 3,1 C 0,0 km/h (0 Bft)
31.10.2012 18:25 3,9 C 12,2 C 3,2 C 3,6 C 3,1 C 0,0 C 83 % 91 % 0 % 1003,6 hPa 0,0 l/m 0,0 km/h (0 Bft) NO 45 0 min 0,0 UV-I 1,3 C 3,1 C 0,0 km/h (0 Bft)
31.10.2012 18:30 3,8 C 12,2 C 3,2 C 3,5 C 2,9 C 0,0 C 83 % 92 % 0 % 1003,6 hPa 0,0 l/m 0,0 km/h (0 Bft) N-NO 22 0 min 0,0 UV-I 1,2 C 2,9 C 0,0 km/h (0 Bft)
31.10.2012 18:35 3,7 C 12,2 C 3,5 C 3,4 C 2,9 C 0,0 C 84 % 92 % 0 % 1003,6 hPa 0,0 l/m 0,0 km/h (0 Bft) N 360 0 min 0,0 UV-I 1,3 C 2,9 C 0,0 km/h (0 Bft)
31.10.2012 18:46 3,6 C 12,2 C 3,2 C 3,3 C 2,7 C 0,0 C 84 % 92 % 0 % 1003,4 hPa 0,0 l/m 0,0 km/h (0 Bft) N 0 0 min 0,0 UV-I 1,2 C 2,7 C 0,0 km/h (0 Bft)
31.10.2012 18:55 3,5 C 12,2 C 3,3 C 3,2 C 2,6 C 0,0 C 84 % 93 % 0 % 1003,4 hPa 0,0 l/m 0,2 km/h (0 Bft) N-NO 22 0 min 0,0 UV-I 1,1 C 2,6 C 0,0 km/h (0 Bft)
31.10.2012 19:00 3,4 C 12,2 C 3,2 C 3,1 C 2,6 C 0,0 C 85 % 93 % 0 % 1003,2 hPa 0,0 l/m 0,0 km/h (0 Bft) N-NO 22 0 min 0,0 UV-I 1,1 C 2,6 C 0,0 km/h (0 Bft)
31.10.2012 19:05 3,3 C 12,2 C 3,2 C 3,0 C 2,5 C 0,0 C 85 % 93 % 0 % 1003,2 hPa 0,0 l/m 0,0 km/h (0 Bft) N 360 0 min 0,0 UV-I 1,0 C 2,5 C 0,0 km/h (0 Bft)
31.10.2012 19:10 3,2 C 12,2 C 3,1 C 3,0 C 2,5 C 0,0 C 85 % 93 % 0 % 1003,2 hPa 0,0 l/m 0,0 km/h (0 Bft) N-NO 22 0 min 0,0 UV-I 0,9 C 2,5 C 0,0 km/h (0 Bft)
31.10.2012 19:15 3,1 C 12,2 C 2,9 C 2,9 C 2,5 C 0,0 C 85 % 93 % 0 % 1003,2 hPa 0,0 l/m 0,0 km/h (0 Bft) N-NW 337 0 min 0,0 UV-I 0,8 C 2,5 C 0,0 km/h (0 Bft)
31.10.2012 19:20 3,0 C 12,2 C 2,9 C 2,8 C 2,5 C 0,0 C 84 % 93 % 0 % 1003,2 hPa 0,0 l/m 0,0 km/h (0 Bft) N-NO 22 0 min 0,0 UV-I 0,6 C 2,5 C 0,0 km/h (0 Bft)
31.10.2012 19:25 2,9 C 12,2 C 2,8 C 2,8 C 2,5 C 0,0 C 85 % 93 % 0 % 1003,2 hPa 0,0 l/m 0,0 km/h (0 Bft) NO 45 0 min 0,0 UV-I 0,6 C 2,5 C 0,0 km/h (0 Bft)
31.10.2012 19:30 2,9 C 12,2 C 2,6 C 2,8 C 2,5 C 0,0 C 85 % 93 % 0 % 1003,2 hPa 0,0 l/m 0,0 km/h (0 Bft) N-NO 22 0 min 0,0 UV-I 0,6 C 2,5 C 0,0 km/h (0 Bft)
31.10.2012 19:35 2,8 C 12,2 C 2,4 C 2,7 C 2,4 C 0,0 C 85 % 93 % 0 % 1003,2 hPa 0,0 l/m 0,0 km/h (0 Bft) N-NO 22 0 min 0,0 UV-I 0,5 C 2,4 C 0,0 km/h (0 Bft)
31.10.2012 19:40 2,7 C 12,2 C 2,5 C 2,6 C 2,4 C 0,0 C 85 % 93 % 0 % 1002,8 hPa 0,0 l/m 0,0 km/h (0 Bft) O-NO 67 0 min 0,0 UV-I 0,4 C 2,4 C 0,0 km/h (0 Bft)
31.10.2012 19:45 2,6 C 12,2 C 2,4 C 2,5 C 2,4 C 0,0 C 86 % 93 % 0 % 1002,8 hPa 0,0 l/m 0,0 km/h (0 Bft) N-NW 337 0 min 0,0 UV-I 0,5 C 2,4 C 0,0 km/h (0 Bft)
31.10.2012 19:50 2,7 C 12,2 C 2,5 C 2,5 C 2,2 C 0,0 C 86 % 93 % 0 % 1002,8 hPa 0,0 l/m 0,0 km/h (0 Bft) NO 45 0 min 0,0 UV-I 0,6 C 2,2 C 0,0 km/h (0 Bft)
31.10.2012 19:55 2,5 C 12,2 C 2,4 C 2,4 C 2,2 C 0,0 C 86 % 93 % 0 % 1002,8 hPa 0,0 l/m 0,0 km/h (0 Bft) N 360 0 min 0,0 UV-I 0,4 C 2,2 C 0,0 km/h (0 Bft)
31.10.2012 20:00 2,5 C 12,3 C 2,5 C 2,4 C 2,3 C 0,0 C 87 % 93 % 0 % 1002,4 hPa 0,0 l/m 0,2 km/h (0 Bft) NO 45 0 min 0,0 UV-I 0,6 C 2,3 C 0,0 km/h (0 Bft)
31.10.2012 20:05 2,7 C 12,3 C 2,7 C 2,6 C 2,4 C 0,0 C 87 % 93 % 0 % 1002,4 hPa 0,0 l/m 0,3 km/h (0 Bft) N-NO 22 0 min 0,0 UV-I 0,8 C 2,4 C 0,0 km/h (0 Bft)
31.10.2012 20:10 2,7 C 12,3 C 2,6 C 2,6 C 2,5 C 0,0 C 87 % 93 % 0 % 1002,4 hPa 0,0 l/m 0,2 km/h (0 Bft) N 360 0 min 0,0 UV-I 0,8 C 2,5 C 0,0 km/h (0 Bft)
31.10.2012 20:15 2,8 C 12,3 C 2,8 C 2,7 C 2,6 C 0,0 C 87 % 94 % 0 % 1002,4 hPa 0,0 l/m 0,5 km/h (0 Bft) N-NW 337 0 min 0,0 UV-I 0,9 C 2,6 C 3,4 km/h (1 Bft)
31.10.2012 20:20 2,9 C 12,2 C 2,8 C 2,8 C 2,6 C 0,0 C 87 % 94 % 0 % 1002,5 hPa 0,0 l/m 0,5 km/h (0 Bft) SO 135 0 min 0,0 UV-I 1,0 C 2,6 C 0,0 km/h (0 Bft)
31.10.2012 20:25 2,8 C 12,2 C 2,7 C 2,7 C 2,5 C 0,0 C 87 % 94 % 0 % 1002,5 hPa 0,0 l/m 0,2 km/h (0 Bft) NO 45 0 min 0,0 UV-I 0,9 C 2,5 C 0,0 km/h (0 Bft)
31.10.2012 20:30 2,7 C 12,3 C 2,6 C 2,6 C 2,5 C 0,0 C 87 % 94 % 0 % 1002,5 hPa 0,0 l/m 0,0 km/h (0 Bft) O-NO 67 0 min 0,0 UV-I 0,8 C 2,5 C 0,0 km/h (0 Bft)
31.10.2012 20:35 2,7 C 12,3 C 2,4 C 2,6 C 2,5 C 0,0 C 87 % 93 % 0 % 1002,5 hPa 0,0 l/m 0,2 km/h (0 Bft) O-NO 67 0 min 0,0 UV-I 0,8 C 2,5 C 0,0 km/h (0 Bft)
31.10.2012 20:40 2,5 C 12,3 C 2,4 C 2,5 C 2,4 C 0,0 C 86 % 93 % 0 % 1002,3 hPa 0,0 l/m 0,2 km/h (0 Bft) NW 315 0 min 0,0 UV-I 0,4 C 2,4 C 0,0 km/h (0 Bft)
31.10.2012 20:45 2,4 C 12,2 C 2,4 C 2,3 C 2,2 C 0,0 C 86 % 93 % 0 % 1002,3 hPa 0,0 l/m 0,0 km/h (0 Bft) SW 225 0 min 0,0 UV-I 0,3 C 2,2 C 0,0 km/h (0 Bft)
31.10.2012 20:50 2,4 C 12,2 C 2,3 C 2,3 C 2,0 C 0,0 C 86 % 93 % 0 % 1002,3 hPa 0,0 l/m 0,0 km/h (0 Bft) O-SO 112 0 min 0,0 UV-I 0,3 C 2,0 C 0,0 km/h (0 Bft)
31.10.2012 20:55 2,3 C 12,2 C 2,3 C 2,2 C 2,0 C 0,0 C 86 % 93 % 0 % 1002,3 hPa 0,0 l/m 0,3 km/h (0 Bft) O-NO 67 0 min 0,0 UV-I 0,2 C 2,0 C 2,6 km/h (1 Bft)
31.10.2012 21:00 2,3 C 12,2 C 2,3 C 2,2 C 2,1 C 0,0 C 86 % 93 % 0 % 1002,3 hPa 0,0 l/m 0,3 km/h (0 Bft) O-NO 67 0 min 0,0 UV-I 0,2 C 2,1 C 0,0 km/h (0 Bft)
31.10.2012 21:05 2,3 C 12,2 C 2,4 C 2,5 C 2,5 C 0,2 C 86 % 94 % 0 % 1002,3 hPa 0,0 l/m 0,5 km/h (0 Bft) O-SO 112 0 min 0,0 UV-I 0,2 C 2,5 C 0,0 km/h (0 Bft)
31.10.2012 21:10 2,3 C 12,2 C 2,4 C 2,6 C 2,6 C 0,3 C 86 % 94 % 0 % 1002,3 hPa 0,0 l/m 0,3 km/h (0 Bft) NO 45 0 min 0,0 UV-I 0,2 C 2,6 C 0,0 km/h (0 Bft)
31.10.2012 21:15 2,4 C 12,1 C 2,6 C 3,0 C 3,0 C 0,6 C 87 % 94 % 0 % 1002,3 hPa 0,0 l/m 0,6 km/h (0 Bft) O-NO 67 0 min 0,0 UV-I 0,5 C 3,0 C 0,0 km/h (0 Bft)
31.10.2012 21:20 2,7 C 12,0 C 2,9 C 3,1 C 3,1 C 0,4 C 87 % 94 % 0 % 1002,1 hPa 0,0 l/m 0,5 km/h (0 Bft) O 90 0 min 0,0 UV-I 0,8 C 3,1 C 0,0 km/h (0 Bft)
31.10.2012 21:25 2,8 C 12,0 C 2,9 C 3,1 C 3,1 C 0,3 C 87 % 94 % 0 % 1002,1 hPa 0,0 l/m 0,0 km/h (0 Bft) O-NO 67 0 min 0,0 UV-I 0,9 C 3,1 C 0,0 km/h (0 Bft)
31.10.2012 21:30 2,9 C 12,0 C 2,9 C 3,2 C 3,2 C 0,3 C 87 % 94 % 0 % 1002,1 hPa 0,0 l/m 0,5 km/h (0 Bft) O 90 0 min 0,0 UV-I 1,0 C 3,2 C 0,0 km/h (0 Bft)
31.10.2012 21:35 3,2 C 12,0 C 3,1 C 3,3 C 3,3 C 0,1 C 86 % 94 % 0 % 1002,1 hPa 0,0 l/m 0,5 km/h (0 Bft) O-SO 112 0 min 0,0 UV-I 1,1 C 3,3 C 0,0 km/h (0 Bft)
31.10.2012 21:40 3,2 C 11,9 C 3,1 C 3,2 C 3,2 C 0,0 C 86 % 94 % 0 % 1002,0 hPa 0,0 l/m 0,2 km/h (0 Bft) O-SO 112 0 min 0,0 UV-I 1,1 C 3,2 C 1,9 km/h (1 Bft)
31.10.2012 21:45 3,3 C 11,9 C 3,1 C 3,3 C 3,2 C 0,0 C 85 % 94 % 0 % 1002,0 hPa 0,0 l/m 0,5 km/h (0 Bft) W 270 0 min 0,0 UV-I 1,0 C 3,2 C 0,0 km/h (0 Bft)
31.10.2012 21:50 3,5 C 11,9 C 3,3 C 3,4 C 3,3 C 0,0 C 85 % 94 % 0 % 1002,0 hPa 0,0 l/m 1,1 km/h (1 Bft) O-NO 67 0 min 0,0 UV-I 1,2 C 3,3 C 2,1 km/h (1 Bft)
31.10.2012 21:55 3,7 C 11,9 C 3,3 C 3,7 C 3,6 C 0,0 C 85 % 94 % 0 % 1002,0 hPa 0,0 l/m 1,1 km/h (1 Bft) W-NW 292 0 min 0,0 UV-I 1,4 C 3,6 C 0,0 km/h (0 Bft)
31.10.2012 22:00 3,9 C 11,9 C 3,5 C 3,8 C 3,7 C 0,0 C 84 % 94 % 0 % 1001,9 hPa 0,0 l/m 1,1 km/h (1 Bft) O-SO 112 0 min 0,0 UV-I 1,4 C 3,7 C 1,9 km/h (1 Bft)
31.10.2012 22:05 4,1 C 11,9 C 3,5 C 4,0 C 3,7 C 0,0 C 83 % 94 % 0 % 1001,9 hPa 0,0 l/m 0,8 km/h (0 Bft) N-NO 22 0 min 0,0 UV-I 1,5 C 3,7 C 2,6 km/h (1 Bft)
31.10.2012 22:10 4,1 C 11,9 C 3,5 C 3,9 C 3,6 C 0,0 C 83 % 94 % 0 % 1001,9 hPa 0,0 l/m 1,0 km/h (0 Bft) O-NO 67 0 min 0,0 UV-I 1,5 C 3,6 C 0,0 km/h (0 Bft)
31.10.2012 22:15 4,4 C 11,9 C 3,5 C 4,2 C 3,7 C 0,0 C 82 % 94 % 0 % 1001,9 hPa 0,0 l/m 2,1 km/h (1 Bft) O-SO 112 0 min 0,0 UV-I 1,6 C 3,7 C 0,0 km/h (0 Bft)
31.10.2012 22:20 4,4 C 11,9 C 3,5 C 4,2 C 3,7 C 0,0 C 81 % 94 % 0 % 1001,8 hPa 0,0 l/m 1,9 km/h (1 Bft) O-SO 112 0 min 0,0 UV-I 1,4 C 3,7 C 0,0 km/h (0 Bft)
31.10.2012 22:25 4,3 C 11,9 C 3,4 C 4,0 C 3,5 C 0,0 C 81 % 93 % 0 % 1001,8 hPa 0,0 l/m 0,5 km/h (0 Bft) SO 135 0 min 0,0 UV-I 1,3 C 3,5 C 1,9 km/h (1 Bft)
31.10.2012 22:30 4,3 C 11,8 C 3,2 C 4,0 C 3,3 C 0,0 C 81 % 93 % 0 % 1001,8 hPa 0,0 l/m 0,3 km/h (0 Bft) W 270 0 min 0,0 UV-I 1,3 C 3,3 C 0,0 km/h (0 Bft)
31.10.2012 22:35 4,1 C 11,8 C 3,2 C 3,8 C 3,2 C 0,0 C 81 % 93 % 0 % 1001,8 hPa 0,0 l/m 0,6 km/h (0 Bft) O-SO 112 0 min 0,0 UV-I 1,1 C 3,2 C 2,9 km/h (1 Bft)
31.10.2012 22:40 4,0 C 11,8 C 3,3 C 3,7 C 3,2 C 0,0 C 81 % 93 % 0 % 1001,2 hPa 0,0 l/m 0,8 km/h (0 Bft) N-NO 22 0 min 0,0 UV-I 1,0 C 3,2 C 3,4 km/h (1 Bft)
31.10.2012 22:45 4,0 C 11,8 C 3,3 C 3,8 C 3,3 C 0,0 C 81 % 93 % 0 % 1001,2 hPa 0,0 l/m 1,8 km/h (1 Bft) O-SO 112 0 min 0,0 UV-I 1,0 C 3,3 C 11,1 km/h (2 Bft)
31.10.2012 22:50 4,1 C 11,8 C 3,3 C 3,9 C 3,5 C 0,0 C 81 % 92 % 0 % 1001,2 hPa 0,0 l/m 2,7 km/h (1 Bft) O-NO 67 0 min 0,0 UV-I 1,1 C 3,5 C 4,2 km/h (1 Bft)
31.10.2012 22:55 4,2 C 11,8 C 3,5 C 3,9 C 3,2 C 0,0 C 80 % 92 % 0 % 1001,2 hPa 0,0 l/m 3,7 km/h (1 Bft) NO 45 0 min 0,0 UV-I 1,1 C 3,2 C 8,4 km/h (2 Bft)
31.10.2012 23:00 4,3 C 11,8 C 3,7 C 4,0 C 3,5 C 0,0 C 80 % 92 % 0 % 1001,2 hPa 0,0 l/m 3,2 km/h (1 Bft) N-NO 22 0 min 0,0 UV-I 1,2 C 3,5 C 2,6 km/h (1 Bft)
31.10.2012 23:05 4,3 C 11,8 C 3,5 C 4,1 C 3,7 C 0,0 C 80 % 92 % 0 % 1001,2 hPa 0,0 l/m 2,6 km/h (1 Bft) NW 315 0 min 0,0 UV-I 1,2 C 3,7 C 2,9 km/h (1 Bft)
31.10.2012 23:10 4,3 C 11,8 C 3,5 C 4,1 C 3,6 C 0,0 C 80 % 92 % 0 % 1001,2 hPa 0,0 l/m 2,6 km/h (1 Bft) O-NO 67 0 min 0,0 UV-I 1,2 C 3,6 C 8,5 km/h (2 Bft)
31.10.2012 23:15 4,2 C 11,8 C 3,5 C 4,0 C 3,6 C 0,0 C 80 % 92 % 0 % 1001,2 hPa 0,0 l/m 2,7 km/h (1 Bft) N-NO 22 0 min 0,0 UV-I 1,1 C 3,6 C 2,1 km/h (1 Bft)
31.10.2012 23:20 4,2 C 11,8 C 3,5 C 3,9 C 3,3 C 0,0 C 80 % 92 % 0 % 1000,8 hPa 0,0 l/m 3,1 km/h (1 Bft) S 180 0 min 0,0 UV-I 1,1 C 3,3 C 5,5 km/h (1 Bft)
31.10.2012 23:25 4,1 C 11,8 C 3,3 C 3,9 C 3,4 C 0,0 C 80 % 92 % 0 % 1000,8 hPa 0,0 l/m 2,4 km/h (1 Bft) S-SW 202 0 min 0,0 UV-I 1,0 C 3,4 C 4,0 km/h (1 Bft)
31.10.2012 23:30 4,1 C 11,8 C 3,5 C 3,9 C 3,5 C 0,0 C 80 % 92 % 0 % 1000,8 hPa 0,0 l/m 2,4 km/h (1 Bft) W 270 0 min 0,0 UV-I 1,0 C 3,5 C 1,9 km/h (1 Bft)
31.10.2012 23:35 4,0 C 11,8 C 3,3 C 3,8 C 3,3 C 0,0 C 80 % 92 % 0 % 1000,8 hPa 0,0 l/m 1,9 km/h (1 Bft) SO 135 0 min 0,0 UV-I 0,9 C 3,3 C 0,0 km/h (0 Bft)
31.10.2012 23:40 4,1 C 11,8 C 3,3 C 3,8 C 3,3 C 0,0 C 80 % 92 % 0 % 1001,0 hPa 0,0 l/m 1,6 km/h (1 Bft) NW 315 0 min 0,0 UV-I 1,0 C 3,3 C 2,7 km/h (1 Bft)
31.10.2012 23:45 3,9 C 11,8 C 3,2 C 3,7 C 3,2 C 0,0 C 80 % 91 % 0 % 1001,0 hPa 0,0 l/m 1,3 km/h (1 Bft) N-NW 337 0 min 0,0 UV-I 0,8 C 3,2 C 2,1 km/h (1 Bft)
31.10.2012 23:50 3,9 C 11,8 C 3,3 C 3,7 C 3,2 C 0,0 C 80 % 92 % 0 % 1001,0 hPa 0,0 l/m 1,3 km/h (1 Bft) N-NW 337 0 min 0,0 UV-I 0,8 C 3,2 C 2,6 km/h (1 Bft)
31.10.2012 23:55 3,8 C 11,8 C 3,2 C 3,6 C 3,2 C 0,0 C 80 % 91 % 0 % 1001,0 hPa 0,0 l/m 1,6 km/h (1 Bft) S-SO 157 0 min 0,0 UV-I 0,7 C 3,2 C 0,0 km/h (0 Bft)
_ Min-Zeit 07:35 10:25 06:10 06:15 06:15 02:20 13:51 15:00 00:00 23:20 - 00:10 - - - 00:00 06:20 06:15 00:00
Minimum _ -1,3 C 10,9 C -0,1 C -1,3 C -1,7 C 0,0 C 62 % 84 % 0 % 1000,8 hPa - 0,0 km/h (0 Bft) - - - 0,0 UV-I -2,8 C -1,7 C 0,0 km/h (0 Bft)
_ Max-Zeit 13:55 20:00 14:00 14:45 14:45 11:45 10:15 01:25 10:55 08:40 00:00 22:55 - - 07:15 11:20 13:00 14:45 13:45
Maximum _ 11,7 C 12,3 C 10,5 C 16,8 C 16,8 C 8,1 C 93 % 96 % 100 % 1008,8 hPa 0,0 l/m 3,7 km/h
NO (1 Bft)
- - 5 min 0,4 UV-I 5,9 C 16,8 C 12,9 km/h
S (3 Bft)
Durchschnitt _ 4,1 C 11,5 C 4,0 C 5,2 C 5,0 C 1,2 C 83 % 94 % 25 % 1005,7 hPa #0,0 l/m 0,8 km/h (0 Bft) O-NO - #4:30 h 0,3 UV-I 1,4 C 5,0 C 1,3 km/h (1 Bft)
2012 www.wetterstation-wechselburg.de